Regional Weather Roundup
Issued by NWS Cleveland, OH

Home | Current Version | Previous Version | Graphics & Text | Print | Product List | Glossary On
Versions: 1 2 3 4 5 6 7 8 9 10 11 12 13 14 15 16 17 18 19 20 21 22 23 24 25 26 27 28 29 30 31 32 33 34 35 36 37 38 39 40 41 42 43 44 45 46 47 48 49 50
000
ASUS41 KCLE 150802
RWRCLE
OHIO REGIONAL WEATHER ROUNDUP
NATIONAL WEATHER SERVICE CLEVELAND, OH
400 AM EDT MON SEP 15 2014

NOTE: "FAIR" INDICATES FEW OR NO CLOUDS BELOW 12,000 FEET WITH NO
SIGNIFICANT WEATHER AND/OR OBSTRUCTIONS TO VISIBILITY.

OHZ001>008-015>018-024>027-034-035-043-044-150900-
   NORTHWEST OHIO

CITY           SKY/WX    TMP DP  RH WIND       PRES   REMARKS
DEFIANCE       CLEAR     46  43  89 CALM      30.21F
FINDLAY        CLEAR     50  45  83 CALM      30.20S
TOLEDO EXPRESS CLEAR     45  44  97 CALM      30.21S
TOLEDO EXEC    CLEAR     49  44  83 CALM      30.22S
LIMA           CLEAR     47  44  90 CALM      30.20F
$$

OHZ009>014-019>023-028>033-038-089-150900-
   NORTHEAST OHIO

CITY           SKY/WX    TMP DP  RH WIND       PRES   REMARKS
CLE-HOPKINS    MOCLDY    49  45  86 CALM      30.23F
CLE-LAKEFRONT  CLEAR     51  46  83 SE8       30.21F
CUY CO. ARPT   NOT AVBL
LORAIN-ELYRIA  CLEAR     49  44  83 S3        30.22F
ASHTABULA      CLOUDY    46  44  93 CALM      30.23F
AKRON-CANTON   CLEAR     49  44  83 CALM      30.22F
WOOSTER        CLEAR     42  39  89 CALM      30.23F
MANSFIELD      CLEAR     47  44  90 CALM      30.22F
YOUNGSTOWN     PTCLDY    44  41  89 CALM      30.23S
$$

OHZ042-051>053-060>062-070>072-077>081-150900-
  SOUTHWEST OHIO

CITY           SKY/WX    TMP DP  RH WIND       PRES   REMARKS
CINC-COVINGTON CLEAR     50  47  89 CALM      30.19F
CINC-LUNKEN    CLOUDY    49  48  97 CALM      30.21F FOG
HAMILTON       CLEAR     47  45  93 CALM      30.22R
DAYTON         CLEAR     53  47  79 SE7       30.21S
WRIGHT-PAT AFB CLEAR     48  45  89 CALM      30.21S
DAYTON GENERAL CLEAR     52  47  83 S3        30.20S
WILMINGTON     CLEAR     48  43  82 CALM      30.21S
$$

OHZ036-037-039>041-045>050-054>059-063>069-073>076-082>088-150900-
  CENTRAL AND SOUTHEAST OHIO

CITY           SKY/WX    TMP DP  RH WIND       PRES   REMARKS
COLUMBUS       CLEAR     50  45  83 CALM      30.21F
OSU AIRPORT    CLEAR     48  45  89 CALM      30.21F
BOLTON FIELD   CLEAR     43  43 100 CALM      30.21F
RICKENBACK AFB CLEAR     46  43  92 CALM      30.21F
NEWARK         CLEAR     43  41  93 CALM      30.22S
MARION         CLEAR     45  42  89 CALM      30.21F
LANCASTER      CLEAR     44  42  93 CALM      30.22F
ZANESVILLE     CLEAR     43  41  93 CALM      30.23S
NEW PHILLY     FOG       45  45 100 CALM      30.24S VSB 1/4
$$



USA.gov is the U.S. government's official web portal to all federal, state and local government web resources and services.